Flag for Germany Weather past 2 weeks in Rotenburg (Wümme), Lower Saxony, Germany

Now
40 °F

Overcast.


Feels Like: 35 °F
Forecast: 38 / 44 °F
Wind: 9 mph from South

Location: Bremen

Current Time: Mar 1, 2015 at 1:55:39 AM

Latest Report: Mar 1, 2015 at 1:00 AM


Visibility: 22 mi

Pressure: 29.71 "Hg

Humidity: 63%

Dew point: 29 °F

Location of Rotenburg (Wümme)Location

Historic Weather in Rotenburg (Wümme) — Graph

°F

Rotenburg (Wümme) temperature yesterday

Maximum temperature yesterday: 44 °F (at 4:00 PM)
Minimum temperature yesterday: 29 °F (at 5:00 AM)
Average temperature yesterday: 37 °F

Past Weeks' High & Low Weather Summary

 TemperatureHumidityPressure
High51 °F (Feb 14, 4:00 PM)100% (Feb 17, 8:00 AM)30.73 "Hg (Feb 17, 8:00 AM)
Low26 °F (Feb 17, 7:00 AM)58% (Feb 28, 4:00 PM)29.26 "Hg (Feb 21, 7:00 AM)
Average38 °F85%29.94 "Hg
* Reported Midnight between Feb 13 and Feb 14 — Midnight between Feb 28 and Mar 1, Rotenburg (Wümme), Weather by CustomWeather, © 2015

Note: Actual official high and low records may vary slightly from our data, if they occured in-between our weather recording intervals... More about our weather records

Advertising

Rotenburg (Wümme) weather history for previous 24 hours

 ConditionsComfort  
Time TempWeatherWind HumidityBarometerVisibility
12:00 AM
Sun, Mar 1
40 °FOvercast.8 mph65%29.75 "Hg22 mi
11:00 PM
Sat, Feb 28
39 °FOvercast.7 mph65%29.79 "Hg25 mi
9:00 PM38 °FPassing clouds.6 mph67%29.87 "Hg25 mi
8:00 PM38 °FPassing clouds.5 mph73%29.89 "Hg25 mi
7:00 PM40 °FPassing clouds.5 mph67%29.90 "Hg16 mi
6:00 PM42 °FPassing clouds.7 mph65%29.92 "Hg16 mi
5:00 PM44 °FPassing clouds.8 mph62%29.95 "Hg12 mi
4:00 PM44 °FPassing clouds.9 mph58%29.98 "Hg12 mi
3:00 PM44 °FScattered clouds.8 mph61%30.01 "Hg12 mi
2:00 PM44 °FScattered clouds.8 mph65%30.03 "Hg12 mi
1:00 PM42 °FPartly sunny.7 mph73%30.06 "Hg9 mi
12:00 PM40 °FPartly sunny.8 mph80%30.06 "Hg9 mi
11:00 AM39 °FScattered clouds.7 mph80%30.08 "Hg7 mi
10:00 AM37 °FScattered clouds.5 mph88%30.10 "Hg6 mi
9:00 AM34 °FScattered clouds.3 mph91%30.11 "Hg6 mi
8:00 AM31 °FChilly.3 mph96%30.11 "HgN/A
7:00 AM32 °FOvercast.3 mph95%30.09 "Hg7 mi
6:00 AM32 °FOvercast.3 mph96%30.09 "Hg7 mi
5:00 AM29 °FFog.2 mph97%30.11 "Hg4 mi
3:00 AM30 °FFog.2 mph100%30.11 "Hg6 mi
2:00 AM32 °FFog.1 mph98%30.11 "Hg6 mi
1:00 AM33 °FPassing clouds.1 mph96%30.09 "Hg19 mi
Weather by CustomWeather, © 2015

See weather overviewHow to use our weather pages